STARLINK-5745, 55575

Orbit data source: Space-Track

STARLINK-5745, 55575 is a payload satellite owned by SpaceX/Seattle (US) in LEO that was launched on Sun, 12 Feb 2023 UTC via an FALCON 9 launch vehicle from the Air Force Eastern Test Range (AFETR). Payload-class satellites include a variety of spacecraft equipped with specific instruments for various scientific and technological missions. These include communications satellites like Starlink; space stations such as the ISS; scientific satellites like the Hubble; Earth observation satellites from companies like Planet Labs, Umbra, and HawkEye 360; GPS; miniature CubeSats for education and research; and military/defense satellites.

Loading next visibility...
Identifier
55575, 2023-020G
Orbit
LEO
Country
Flag of USUS
Related business
Manufacturer
SpaceX/Seattle
Mission
Operational Commercial Communications
Bus & Motor
STARLINK, Unknown motor
Mass
305 kg wet, ~290 kg dry
Launch date (UTC)
2023-02-12 (4 years ago)
Launch vehicle
FALCON 9
Launch site
Air Force Eastern Test Range (AFETR)
Object type
Payload
Rocket body
Debris
Shape & HBR
Box + 1 Pan, 10.1 m
Radar Cross Section
13.562 m², Large (>1 m²)

Expand to show TLE details & history
Last TLE update: 5 hours ago

TLE from 5 hours ago
0 STARLINK-5745
1 55575U 23020G   26264.27160086 -.00000137  00000-0  45402-5 0  9996
2 55575  43.0049 344.1451 0001262 289.2360  70.8355 15.27576326198787
Epoch: 2026-09-21T06:31Z
TLE epoch observation values (Epoch: 2026-09-21T06:31:06.314Z)
Latitude
-0.00002°
Longitude
-113.78505°
Altitude
482.552 km
Speed
7.626 km/s
True Right ascension
22h 56m 34s
True Declination
0° 00' 00"
Sunlit
Object was in full shadow at epoch
Visualization orbit readout
Latitude
Unknown
Longitude
Unknown
Altitude
Unknown
Speed
Unknown
Apparent Right ascension
Unknown
Apparent Declination
Unknown
Sunlit
N/A
Visualization observer readout
Local Sidereal Time
04:02:08
Azimuth
Unknown
Elevation
Unknown
Doppler factor
Unknown
Orbital elements
Apogee altitude
485.871 km
Perigee altitude
484.138 km
Semi-major axis
6,863.141 km
Eccentricity
0.00013
Inclination
43.0049°
RAAN
344.1451°
Arg. of periapsis
289.236°
True anomaly
70.84916°
Mean anomaly
70.8355°
Eccentric anomaly
70.84233°
Mean motion
3.81732 °/min
Orbital period
94.31 mins
BSTAR
0.0000045402
Loading maneuver chart data...
Computing Atmospheric mass density...
Loading historical data...
Loading historical data...
Loading historical data...
Loading historical data...
Loading historical data...
Loading historical data...
Loading historical data...

Documentation

Showing up to 5 results
|